Meteo Giornale » Osservazioni meteo Germania » Altenstadt

ore: 20:20 - Osservazioni Meteo Altenstadt
Lat. 47° 50' N Lon. 10° 52' E Alt. 739 metri s.l.m.

molto_nuvoloso Europe/Berlin

13 °C

Molto Nuvoloso

Temp. 24 Ore

11 °C

15 °C

Nord

5.5 Km/h

Dew point 11 °C

Umidità 87 %

Visibilità  10 Km

Il sole sorge alle ore 06:55

Il sole tramonta alle ore 19:26

Data e Ora Cielo e Fenomeni T °C DP °C Um. % Pres. hPa Vis. km Vento km/h
Oggi h: 20:20 molto_nuvoloso Molto Nuvoloso 13 11 87 1017 10 N 5.5
Oggi h: 19:20 molto_nuvoloso Molto Nuvoloso 14 10 76 1016 10 E/NE 9.3
Oggi h: 18:20 molto_nuvoloso Molto Nuvoloso 14 10 76 1016 10 E/NE 13
Oggi h: 17:20 molto_nuvoloso Molto Nuvoloso 15 10 72 1016 10 E 11.1
Oggi h: 16:20 molto_nuvoloso Molto Nuvoloso 15 10 72 1016 10 E 7.4
Oggi h: 15:20 molto_nuvoloso Molto Nuvoloso 15 9 67 1017 10 N 5.5
Oggi h: 14:20 molto_nuvoloso Molto Nuvoloso 15 9 67 1017 10 E 7.4
Oggi h: 13:20 molto_nuvoloso Molto Nuvoloso 15 9 67 1017 10 N 3.7
Oggi h: 12:20 molto_nuvoloso Molto Nuvoloso 14 8 67 1017 10 N 1.8
Oggi h: 12:00 molto_nuvoloso Molto Nuvoloso 14 9 71 1018 10 N 5.5
Oggi h: 11:20 molto_nuvoloso Molto Nuvoloso 13 8 71 1018 10 N 3.7
Oggi h: 10:20 molto_nuvoloso Molto Nuvoloso 13 10 81 1018 10 N 3.7
Oggi h: 09:20 molto_nuvoloso Molto Nuvoloso 12 10 87 1018 10 N 3.7
Oggi h: 08:20 molto_nuvoloso Molto Nuvoloso 11 10 93 1018 10 N 3.7
Oggi h: 07:20 molto_nuvoloso Molto Nuvoloso 11 10 93 1018 10 N 1.8
Oggi h: 06:20 molto_nuvoloso Molto Nuvoloso 11 10 93 1018 9 N 3.7
Oggi h: 05:20 molto_nuvoloso Molto Nuvoloso 11 10 93 1018 9 N 3.7
Oggi h: 04:20 sereno Sereno 11 10 93 1018 0 N 5.5
Oggi h: 03:20 sereno Sereno 12 11 93 1018 0 N 5.5
Oggi h: 01:20 sereno Sereno 12 11 93 1018 0 N 5.5
Oggi h: 00:20 sereno Sereno 13 12 93 1019 0 N 3.7
Ieri h: 23:20 sereno Sereno 13 12 93 1018 0 N 5.5
Ieri h: 22:20 sereno Sereno 13 12 93 1018 0 N/NE 9.3